Simultaneous Nadir Overpasses (SNOs) Predictions

Prediction of SNOs between METOP-A and NOAA-19 Satellite Orbit:

Table of predicted SNOs for the next 14.0 days since TLE Epoch: 6/22/2014
Index Date (METOP-A) Time (METOP-A) Lat,Lon (METOP-A) SZA (METOP-A ) Date (NOAA-19) Time (NOAA-19) Lat,Lon (NOAA-19) SZA (NOAA-19 ) Distance(km) Time Diff (sec)
1 06/28/2014 19:53:11 74.39,-122.78 51.14 06/28/2014 19:52:00 74.42,-124.16 51.22 41.50 71
2 06/28/2014 20:43:58 -74.14, 43.90 129.10 06/28/2014 20:42:54 -74.13, 43.85 129.09 1.53 64
3 06/28/2014 21:34:39 74.08,-148.91 50.86 06/28/2014 21:33:57 74.10,-148.83 50.88 3.04 42
4 06/28/2014 22:25:21 -74.07, 18.39 129.16 06/28/2014 22:24:57 -74.10, 18.41 129.12 3.64 24
5 06/28/2014 23:16:01 74.07,-174.29 50.84 06/28/2014 23:16:00 74.07,-174.28 50.85 0.87 1
6
